This is the latest recevied weather packets stored in our database for station/object W0AVQ. If no packets are shown the sender has not sent any weather packets the latest 10 day(s).
| Time | Temp. | Humidity | Pressure | Rain* | Wind** | Luminosity | Snow |
|---|---|---|---|---|---|---|---|
| 1778004187 | 16.67° C | 99% | 1009.2 hPa | 0 mm | - | 41 W/m² | - |
| 1778003884 | 16.67° C | 99% | 1009.1 hPa | 0 mm | - | 32 W/m² | - |
| 1778003580 | 16.67° C | 99% | 1009.3 hPa | 0 mm | - | 26 W/m² | - |
| 1778003277 | 16.67° C | 99% | 1009.3 hPa | 0 mm | - | 30 W/m² | - |
| 1778002974 | 16.67° C | 99% | 1009.4 hPa | 0 mm | - | 41 W/m² | - |
| 1778002670 | 16.67° C | 99% | 1009.3 hPa | 0 mm | - | 29 W/m² | - |
| 1778002367 | 16.67° C | 99% | 1009.3 hPa | 0 mm | - | 30 W/m² | - |
| 1778002064 | 16.67° C | 99% | 1009.1 hPa | 0 mm | - | 48 W/m² | - |
| 1778001761 | 16.67° C | 99% | 1009.6 hPa | 0 mm | - | 71 W/m² | - |
| 1778001461 | 16.67° C | 99% | 1009.5 hPa | 0 mm | - | 63 W/m² | - |
| 1778001158 | 16.67° C | 99% | 1009.4 hPa | 0 mm | - | 87 W/m² | - |
| 1778000854 | 16.67° C | 99% | 1010 hPa | 0 mm | - | 75 W/m² | - |
| 1778000552 | 16.67° C | 99% | 1009.7 hPa | 0 mm | - | 39 W/m² | - |
| 1778000247 | 16.67° C | 99% | 1009.8 hPa | 0 mm | - | 56 W/m² | - |
| 1777999943 | 16.67° C | 99% | 1010 hPa | 1.78 mm | - | 59 W/m² | - |
| 1777999638 | 16.67° C | 99% | 1010.1 hPa | 3.05 mm | - | 40 W/m² | - |
| 1777999336 | 16.67° C | 99% | 1010 hPa | 1.27 mm | - | 63 W/m² | - |
| 1777999034 | 16.67° C | 99% | 1010 hPa | 0 mm | - | 28 W/m² | - |
| 1777998732 | 16.67° C | 99% | 1010 hPa | 0 mm | - | 33 W/m² | - |
| 1777998429 | 16.67° C | 99% | 1010.6 hPa | 0 mm | - | 21 W/m² | - |
| 1777998126 | 16.67° C | 99% | 1010.1 hPa | 0 mm | - | 51 W/m² | - |
| 1777997823 | 16.67° C | 99% | 1009.9 hPa | 0 mm | - | 49 W/m² | - |
| 1777997521 | 16.67° C | 99% | 1009.9 hPa | 0 mm | - | 70 W/m² | - |
| 1777997218 | 16.67° C | 99% | 1010 hPa | 0 mm | - | 91 W/m² | - |
| 1777996916 | 16.67° C | 99% | 1010.1 hPa | 0 mm | - | 84 W/m² | - |
* Rain latest hour (hover to see other rain measurements)
** Current wind speed in m/s (hover to see current wind gust speed)